TimePST,TemperatureF,Dew PointF,Humidity,Sea Level PressureIn,VisibilityMPH,Wind Direction,Wind SpeedMPH,Gust SpeedMPH,PrecipitationIn,Events,Conditions,WindDirDegrees,DateUTC
12:56 AM,37.0,35.1,93,30.11,6.0,Calm,Calm,-,N/A,,Clear,0,2012-12-08 08:56:00
1:56 AM,36.0,35.1,97,30.11,9.0,Calm,Calm,-,N/A,,Clear,0,2012-12-08 09:56:00
2:07 AM,33.8,33.8,100,30.11,1.8,Calm,Calm,-,N/A,,Partly Cloudy,0,2012-12-08 10:07:00
2:11 AM,33.8,33.8,100,30.11,0.8,Calm,Calm,-,N/A,,Mist,0,2012-12-08 10:11:00
2:21 AM,33.8,33.8,100,30.12,1.2,Calm,Calm,-,N/A,,Partly Cloudy,0,2012-12-08 10:21:00
2:29 AM,35.6,33.8,93,30.12,3.0,Calm,Calm,-,N/A,,Partly Cloudy,0,2012-12-08 10:29:00
2:56 AM,33.1,32.0,96,30.11,5.0,Calm,Calm,-,N/A,,Clear,0,2012-12-08 10:56:00
3:09 AM,33.8,32.0,93,30.11,2.5,Calm,Calm,-,N/A,,Partly Cloudy,0,2012-12-08 11:09:00
3:13 AM,33.8,32.0,93,30.11,1.0,Calm,Calm,-,N/A,,Mist,0,2012-12-08 11:13:00
3:20 AM,33.8,32.0,93,30.11,0.5,Calm,Calm,-,N/A,Fog,Fog,0,2012-12-08 11:20:00
3:39 AM,33.8,33.8,100,30.11,2.0,Calm,Calm,-,N/A,,Mostly Cloudy,0,2012-12-08 11:39:00
3:47 AM,33.8,33.8,100,30.11,9.0,Calm,Calm,-,N/A,,Mostly Cloudy,0,2012-12-08 11:47:00
3:56 AM,34.0,32.0,92,30.12,10.0,NNW,3.5,-,N/A,,Partly Cloudy,330,2012-12-08 11:56:00
4:56 AM,34.0,33.1,96,30.11,10.0,Calm,Calm,-,N/A,,Clear,0,2012-12-08 12:56:00
5:40 AM,32.0,30.2,93,30.10,4.0,Calm,Calm,-,N/A,,Scattered Clouds,0,2012-12-08 13:40:00
5:48 AM,32.0,30.2,93,30.10,1.8,Calm,Calm,-,N/A,,Partly Cloudy,0,2012-12-08 13:48:00
5:56 AM,32.0,30.9,96,30.11,3.0,Calm,Calm,-,N/A,,Partly Cloudy,0,2012-12-08 13:56:00
6:56 AM,33.1,32.0,96,30.11,10.0,Calm,Calm,-,N/A,,Clear,0,2012-12-08 14:56:00
7:56 AM,33.1,32.0,96,30.13,10.0,Calm,Calm,-,N/A,,Clear,0,2012-12-08 15:56:00
8:56 AM,37.9,35.1,89,30.15,10.0,Calm,Calm,-,N/A,,Clear,0,2012-12-08 16:56:00
9:56 AM,42.1,37.9,85,30.15,10.0,Calm,Calm,-,N/A,,Clear,0,2012-12-08 17:56:00
10:56 AM,46.0,37.9,73,30.15,10.0,Calm,Calm,-,N/A,,Clear,0,2012-12-08 18:56:00
11:56 AM,50.0,37.9,63,30.12,10.0,Calm,Calm,-,N/A,,Clear,0,2012-12-08 19:56:00
12:56 PM,54.0,37.9,55,30.09,10.0,Calm,Calm,-,N/A,,Clear,0,2012-12-08 20:56:00
1:56 PM,55.0,39.9,57,30.08,10.0,Calm,Calm,-,N/A,,Clear,0,2012-12-08 21:56:00
2:56 PM,57.0,39.9,53,30.06,10.0,Calm,Calm,-,N/A,,Clear,0,2012-12-08 22:56:00
3:56 PM,53.1,43.0,69,30.06,10.0,Calm,Calm,-,N/A,,Clear,0,2012-12-08 23:56:00
4:56 PM,51.1,43.0,74,30.07,10.0,Calm,Calm,-,N/A,,Clear,0,2012-12-09 00:56:00
6:56 PM,46.0,41.0,83,30.10,10.0,Calm,Calm,-,N/A,,Clear,0,2012-12-09 02:56:00
7:56 PM,44.1,41.0,89,30.12,10.0,Calm,Calm,-,N/A,,Clear,0,2012-12-09 03:56:00
8:56 PM,42.1,39.0,89,30.12,10.0,Calm,Calm,-,N/A,,Clear,0,2012-12-09 04:56:00
9:56 PM,42.1,39.9,92,30.13,9.0,Calm,Calm,-,N/A,,Clear,0,2012-12-09 05:56:00
10:56 PM,39.9,37.9,93,30.15,10.0,Calm,Calm,-,N/A,,Clear,0,2012-12-09 06:56:00
11:56 PM,39.9,37.9,93,30.16,7.0,Calm,Calm,-,N/A,,Clear,0,2012-12-09 07:56:00